Location: Unspecified
(42.3650°N, 71.1030°W)
Time: 16:09:58
(UTC+00:00)

S-56A Canister/Altair - Pass Details

Date: 29 June 2024
Orbit: 638 x 2487 km, 38.9° (Epoch: 20 July)

Event Time Altitude Azimuth Distance (km) Brightness Sun altitude
Rises 01:56:19 0° 265° (W) 3,933 11.7 -13.4°
Reaches altitude 10° 01:58:40 10° 263° (W) 3,173 11.1 -13.7°
Maximum altitude 02:06:47 74° 180° (S) 1,681 9.0 -14.6°
Drops below altitude 10° 02:19:08 10° 99° (E) 4,673 11.1 -16.0°
Sets 02:23:19 0° 98° (E) 5,875 11.6 -16.4°
